Location: Beneden-Haastrecht
(52.0012°N, 4.7557°E)
Time: 02:43:54
(UTC+00:00)

ERS-2 - Pass Details

Date: 24 October 2020
Orbit: 493 x 498 km, 98.6° (Epoch: 24 November)

Event Time Altitude Azimuth Distance (km) Brightness Sun altitude
Rises 17:21:30 0° 16° (NNE) 2,590 5.5 -9.0°
Reaches altitude 10° 17:23:36 10° 17° (NNE) 1,703 4.6 -9.3°
Maximum altitude 17:27:15 82° 103° (ESE) 506 2.0 -9.8°
Drops below altitude 10° 17:30:53 10° 194° (SSW) 1,688 5.1 -10.4°
Sets 17:32:57 0° 195° (SSW) 2,566 6.0 -10.7°
